This is the latest recevied weather packets stored in our database for station/object WA4IKQ. If no packets are shown the sender has not sent any weather packets the latest 10 day(s).
| Time | Temp. | Humidity | Pressure | Rain* | Wind** | Luminosity | Snow |
|---|---|---|---|---|---|---|---|
| 1778203356 | 28.89° C | 49% | 1013.1 hPa | 0 mm | 2.24 m/s, 239° | - | - |
| 1778203103 | 28.89° C | 47% | 1012.9 hPa | 0 mm | 1.79 m/s, 191° | - | - |
| 1778202861 | 28.89° C | 46% | 1013 hPa | 0 mm | 2.68 m/s, 217° | - | - |
| 1778202442 | 28.89° C | 44% | 1012.9 hPa | 0 mm | 2.24 m/s, 212° | - | - |
| 1778202156 | 28.89° C | 43% | 1012.9 hPa | 0 mm | 0.89 m/s, 224° | - | - |
| 1778201843 | 28.89° C | 42% | 1012.9 hPa | 0 mm | 0.89 m/s, 232° | - | - |
| 1778201514 | 29.44° C | 41% | 1012.9 hPa | 0 mm | 1.34 m/s, 210° | - | - |
| 1778201222 | 29.44° C | 40% | 1012.9 hPa | 0 mm | 1.79 m/s, 248° | - | - |
| 1778201183 | 29.44° C | 40% | 1012.9 hPa | 0 mm | 1.79 m/s, 248° | - | - |
| 1778200955 | 29.44° C | 40% | 1013 hPa | 0 mm | 0.45 m/s, 231° | - | - |
| 1778200888 | 29.44° C | 40% | 1013 hPa | 0 mm | 0.45 m/s, 231° | - | - |
| 1778200690 | 29.44° C | 39% | 1012.9 hPa | 0 mm | 0 m/s | - | - |
| 1778200594 | 29.44° C | 39% | 1012.9 hPa | 0 mm | 0 m/s | - | - |
| 1778200354 | 30° C | 38% | 1012.9 hPa | 0 mm | 0.89 m/s, 190° | - | - |
| 1778200293 | 30° C | 38% | 1012.9 hPa | 0 mm | 0.89 m/s, 190° | - | - |
| 1778199812 | 30° C | 37% | 1012.8 hPa | 0 mm | 0.45 m/s, 226° | - | - |
| 1778199400 | 30.56° C | 36% | 1012.7 hPa | 0 mm | 1.79 m/s, 269° | - | - |
| 1778199112 | 30.56° C | 36% | 1012.6 hPa | 0 mm | 0.89 m/s, 231° | - | - |
| 1778198617 | 30.56° C | 35% | 1012.6 hPa | 0 mm | 0.89 m/s, 240° | - | - |
| 1778198344 | 31.11° C | 34% | 1012.6 hPa | 0 mm | 0.89 m/s, 238° | - | - |
| 1778196456 | 32.22° C | 28% | 1012.5 hPa | 0 mm | 1.34 m/s, 211° | - | - |
| 1778196381 | 32.22° C | 28% | 1012.5 hPa | 0 mm | 1.34 m/s, 211° | - | - |
| 1778196176 | 32.22° C | 28% | 1012.4 hPa | 0 mm | 1.34 m/s, 262° | - | - |
| 1778195539 | 32.78° C | 28% | 1012.5 hPa | 0 mm | 1.79 m/s, 200° | - | - |
| 1778195280 | 32.78° C | 30% | 1012.5 hPa | 0 mm | 0.89 m/s, 169° | - | - |
* Rain latest hour (hover to see other rain measurements)
** Current wind speed in m/s (hover to see current wind gust speed)